FW6790 Weather Reports


time (UTC)temp
F
wind
direction
speed
knots
gust
knots
rain 1hr
in
rain 24hr
in
rain mn
in
humidity
%
barometer
mb
20260505012007 66 210 0.9 2.6 0.00 0.00 0.00 57 1012.4
20260505011501 66 212 0.9 1.7 0.00 0.00 0.00 56 1012.4
20260505010955 66 212 0.9 1.7 0.00 0.00 0.00 56 1012.3
20260505010449 67 212 0.9 1.7 0.00 0.00 0.00 54 1012.3
20260505005943 67 200 0.9 2.6 0.00 0.00 0.00 53 1012.2
20260505005658 67 200 0.9 2.6 0.00 0.00 0.00 53 1012.2
20260505005542 67 200 0.9 2.6 0.00 0.00 0.00 53 1012.2
20260505004931 68 200 0.9 1.7 0.00 0.00 0.00 53 1012.2
20260505004425 68 200 0.9 2.6 0.00 0.00 0.00 53 1012.2
20260505003919 69 200 0.9 2.6 0.00 0.00 0.00 53 1012.1
20260505003413 69 200 0.9 1.7 0.00 0.00 0.00 52 1012.1
20260505002907 69 200 0.9 1.7 0.00 0.00 0.00 52 1012.0
20260505002622 70 161 0.9 1.7 0.00 0.00 0.00 52 1012.0
20260505002505 70 161 0.9 1.7 0.00 0.00 0.00 52 1012.0
20260505001855 71 155 0.0 1.7 0.00 0.00 0.00 50 1012.0
20260505001349 71 215 0.0 1.7 0.00 0.00 0.00 50 1011.9
20260505000843 71 215 0.0 1.7 0.00 0.00 0.00 50 1011.9
20260505000337 72 219 0.0 1.7 0.00 0.00 0.00 48 1011.9
20260504235831 72 159 0.0 0.9 0.00 0.00 0.00 49 1011.9
20260504235325 73 159 0.0 1.7 0.00 0.00 0.00 47 1012.0
20260504234818 73 159 0.0 1.7 0.00 0.00 0.00 47 1011.9
20260504234313 74 159 0.9 3.5 0.00 0.00 0.00 46 1012.0
20260504233806 74 159 0.9 3.5 0.00 0.00 0.00 45 1012.0
20260504233301 75 157 0.9 2.6 0.00 0.00 0.00 44 1012.0
20260504232756 75 221 0.9 2.6 0.00 0.00 0.00 44 1012.2
20260504232249 76 149 0.9 2.6 0.00 0.00 0.00 43 1012.2
20260504231743 76 193 0.9 2.6 0.00 0.00 0.00 43 1012.2
20260504231237 76 121 0.9 4.3 0.00 0.00 0.00 42 1012.3
20260504230950 77 58 0.9 4.3 0.00 0.00 0.00 40 1012.3
20260504230835 77 58 0.9 4.3 0.00 0.00 0.00 40 1012.3
20260504230330 77 226 1.7 3.5 0.00 0.00 0.00 41 1012.3
20260504225946 77 121 1.7 4.3 0.00 0.00 0.00 39 1012.3
20260504225719 77 121 1.7 4.3 0.00 0.00 0.00 39 1012.3
20260504225213 77 164 0.9 4.3 0.00 0.00 0.00 40 1012.3
20260504224711 78 121 0.9 3.5 0.00 0.00 0.00 40 1012.3
20260504224211 77 123 0.9 6.1 0.00 0.00 0.00 40 1012.3
20260504223709 77 100 1.7 6.1 0.00 0.00 0.00 38 1012.3
20260504223210 78 197 1.7 7.8 0.00 0.00 0.00 39 1012.4
20260504222709 78 71 1.7 7.8 0.00 0.00 0.00 38 1012.4
20260504222209 78 156 1.7 5.2 0.00 0.00 0.00 38 1012.5
20260504221709 78 330 1.7 7.0 0.00 0.00 0.00 37 1012.5
20260504221207 78 239 1.7 7.0 0.00 0.00 0.00 36 1012.5
20260504220707 78 138 1.7 4.3 0.00 0.00 0.00 37 1012.5
20260504220207 78 112 1.7 6.1 0.00 0.00 0.00 37 1012.6
20260504215929 78 142 1.7 6.1 0.00 0.00 0.00 37 1012.7
20260504215707 78 142 1.7 6.1 0.00 0.00 0.00 37 1012.7
20260504215207 78 182 2.6 6.1 0.00 0.00 0.00 38 1012.7
20260504214705 78 355 2.6 6.1 0.00 0.00 0.00 37 1012.7
20260504214205 78 326 1.7 6.1 0.00 0.00 0.00 37 1012.8
20260504213701 78 262 1.7 7.0 0.00 0.00 0.00 41 1012.9
20260504213201 78 126 1.7 7.0 0.00 0.00 0.00 39 1012.9
20260504212700 78 21 1.7 5.2 0.00 0.00 0.00 38 1012.8
20260504212201 78 299 0.9 4.3 0.00 0.00 0.00 42 1012.8
20260504211701 78 119 0.9 3.5 0.00 0.00 0.00 41 1012.9
20260504211201 78 340 0.9 3.5 0.00 0.00 0.00 40 1012.9
20260504210934 78 190 0.9 4.3 0.00 0.00 0.00 40 1012.8
20260504210701 78 190 0.9 4.3 0.00 0.00 0.00 40 1012.8
20260504210201 78 136 1.7 5.2 0.00 0.00 0.00 41 1012.9
20260504205701 78 138 1.7 5.2 0.00 0.00 0.00 39 1012.8
20260504205201 78 105 1.7 5.2 0.00 0.00 0.00 39 1012.9
20260504204700 78 115 1.7 4.3 0.00 0.00 0.00 40 1012.8
20260504204201 78 111 0.9 4.3 0.00 0.00 0.00 40 1012.8
20260504203701 78 174 0.9 4.3 0.00 0.00 0.00 40 1012.9
20260504203426 78 135 0.9 4.3 0.00 0.00 0.00 39 1013.0
20260504203303 78 135 0.9 4.3 0.00 0.00 0.00 39 1013.0
20260504202657 77 150 1.7 5.2 0.00 0.00 0.00 42 1013.0
20260504202157 77 0 2.6 5.2 0.00 0.00 0.00 37 1013.1
20260504201657 77 207 1.7 7.0 0.00 0.00 0.00 36 1013.2
20260504201157 77 298 1.7 7.0 0.00 0.00 0.00 36 1013.2
20260504200656 77 219 1.7 5.2 0.00 0.00 0.00 37 1013.2
20260504200155 77 108 1.7 5.2 0.00 0.00 0.00 35 1013.4
20260504195654 77 154 1.7 5.2 0.00 0.00 0.00 39 1013.4
20260504195155 77 129 0.9 5.2 0.00 0.00 0.00 38 1013.4
20260504194654 77 115 0.9 3.5 0.00 0.00 0.00 41 1013.5
20260504194149 76 188 1.7 5.2 0.00 0.00 0.00 42 1013.7
20260504193919 76 196 2.6 5.2 0.00 0.00 0.00 41 1013.7
20260504193646 76 196 2.6 5.2 0.00 0.00 0.00 41 1013.7
20260504193136 76 211 2.6 7.8 0.00 0.00 0.00 46 1013.8
20260504192905 76 355 1.7 7.8 0.00 0.00 0.00 40 1013.9
20260504192734 76 355 1.7 7.8 0.00 0.00 0.00 40 1013.9
20260504192124 76 175 1.7 4.3 0.00 0.00 0.00 41 1013.9
20260504191857 76 168 0.9 4.3 0.00 0.00 0.00 44 1014.0
20260504191618 76 168 0.9 4.3 0.00 0.00 0.00 44 1014.0
20260504191329 76 123 0.9 4.3 0.00 0.00 0.00 45 1014.0
20260504191216 76 123 0.9 4.3 0.00 0.00 0.00 45 1014.0
20260504190606 76 331 1.7 4.3 0.00 0.00 0.00 42 1014.1
20260504190100 76 138 1.7 4.3 0.00 0.00 0.00 40 1014.1
20260504185554 76 188 1.7 5.2 0.00 0.00 0.00 43 1014.2
20260504185048 76 167 1.7 5.2 0.00 0.00 0.00 40 1014.3
20260504184928 76 308 1.7 4.3 0.00 0.00 0.00 42 1014.4
20260504184036 75 12 0.9 3.5 0.00 0.00 0.00 42 1014.5
20260504183530 76 130 1.7 3.5 0.00 0.00 0.00 42 1014.6
20260504183024 76 137 2.6 7.8 0.00 0.00 0.00 44 1014.6
20260504182518 76 13 1.7 7.8 0.00 0.00 0.00 43 1014.6
20260504182231 76 287 1.7 4.3 0.00 0.00 0.00 44 1014.7
20260504181507 76 321 1.7 5.2 0.00 0.00 0.00 43 1014.9
20260504181000 76 69 1.7 6.1 0.00 0.00 0.00 45 1014.8
20260504180837 75 355 1.7 6.1 0.00 0.00 0.00 45 1014.9
20260504180212 75 153 1.7 3.5 0.00 0.00 0.00 47 1015.0
20260504180053 75 153 1.7 3.5 0.00 0.00 0.00 47 1015.0
20260504175708 75 227 1.7 5.2 0.00 0.00 0.00 45 1014.9
20260504175441 75 227 1.7 5.2 0.00 0.00 0.00 45 1014.9
20260504174936 75 154 2.6 7.0 0.00 0.00 0.00 43 1015.0
20260504174431 75 342 1.7 7.0 0.00 0.00 0.00 42 1015.1
20260504173925 74 134 1.7 4.3 0.00 0.00 0.00 47 1015.1
20260504173418 74 186 1.7 4.3 0.00 0.00 0.00 48 1015.2
20260504172913 74 315 1.7 6.1 0.00 0.00 0.00 46 1015.3
20260504172406 74 148 1.7 6.1 0.00 0.00 0.00 47 1015.3
20260504171900 74 165 1.7 5.2 0.00 0.00 0.00 47 1015.5
20260504171354 73 24 2.6 7.0 0.00 0.00 0.00 46 1015.5
20260504170849 73 349 1.7 7.0 0.00 0.00 0.00 47 1015.6
20260504170342 73 31 1.7 7.0 0.00 0.00 0.00 46 1015.7
20260504160314 71 337 2.6 6.1 0.00 0.00 0.00 49 1016.4
20260504150811 67 341 1.7 5.2 0.00 0.00 0.00 58 1016.2
20260504150535 67 304 1.7 5.2 0.00 0.00 0.00 57 1016.3
20260504150310 67 304 1.7 5.2 0.00 0.00 0.00 57 1016.3
20260504141310 62 123 0.9 4.3 0.00 0.00 0.00 68 1016.5
20260504141033 62 176 0.9 4.3 0.00 0.00 0.00 68 1016.6
20260504140914 62 176 0.9 4.3 0.00 0.00 0.00 68 1016.6
20260504140534 61 215 0.9 3.5 0.00 0.00 0.00 72 1016.6
20260504140414 61 215 0.9 3.5 0.00 0.00 0.00 72 1016.6
20260504130215 53 40 0.9 2.6 0.00 0.00 0.00 90 1016.9
20260504120113 46 355 0.0 0.9 0.00 0.00 0.00 94 1016.4
20260504110457 44 253 0.0 0.9 0.00 0.00 0.00 92 1015.9
20260504100415 44 346 0.0 0.0 0.00 0.00 0.00 90 1016.1
20260504081845 46 282 0.0 0.0 0.00 0.00 0.00 88 1015.9
20260504081345 46 282 0.0 0.0 0.00 0.00 0.00 88 1015.9
20260504081109 46 282 0.0 0.0 0.00 0.00 0.00 88 1016.0
20260504080950 46 282 0.0 0.0 0.00 0.00 0.00 88 1016.0
20260504080611 46 282 0.0 0.0 0.00 0.00 0.00 88 1016.0
20260504080449 46 282 0.0 0.0 0.00 0.00 0.00 88 1016.0
20260504070333 46 282 0.0 0.0 0.00 0.00 0.00 87 1016.2
20260504060237 47 282 0.0 0.0 0.00 0.00 0.00 85 1016.6
20260504050730 48 261 0.0 0.0 0.00 0.00 0.00 83 1017.3
20260504050454 48 261 0.0 0.0 0.00 0.00 0.00 83 1017.4
20260504050230 48 261 0.0 0.0 0.00 0.00 0.00 83 1017.4
20260504045954 48 261 0.0 0.0 0.00 0.00 0.00 83 1017.3
20260504045227 48 261 0.0 0.0 0.00 0.00 0.00 83 1017.1
20260504044725 48 261 0.0 0.0 0.00 0.00 0.00 83 1017.1
20260504044224 48 261 0.0 0.0 0.00 0.00 0.00 83 1017.1
20260504043723 49 261 0.0 0.0 0.00 0.00 0.00 82 1017.3
20260504043216 49 259 0.0 0.0 0.00 0.00 0.00 81 1017.3
20260504042709 49 259 0.0 0.0 0.00 0.00 0.00 80 1017.3
20260504042426 49 259 0.0 0.0 0.00 0.00 0.00 80 1017.4
20260504042307 49 259 0.0 0.0 0.00 0.00 0.00 80 1017.4
20260504041657 49 259 0.0 0.0 0.00 0.00 0.00 79 1017.4
20260504041151 49 259 0.0 0.0 0.00 0.00 0.00 79 1017.4
20260504040902 49 259 0.0 0.0 0.00 0.00 0.00 80 1017.4
20260504040750 49 259 0.0 0.0 0.00 0.00 0.00 80 1017.4
20260504040138 49 259 0.0 0.0 0.00 0.00 0.00 79 1017.4
20260504035633 49 259 0.0 0.0 0.00 0.00 0.00 78 1017.5
20260504035356 50 259 0.0 0.0 0.00 0.00 0.00 78 1017.6
20260504035127 50 259 0.0 0.0 0.00 0.00 0.00 78 1017.6
20260504034620 50 259 0.0 0.0 0.00 0.00 0.00 78 1017.7
20260504034346 50 259 0.0 0.0 0.00 0.00 0.00 78 1017.8
20260504033608 50 259 0.0 0.0 0.00 0.00 0.00 78 1017.8
20260504033103 50 259 0.0 0.0 0.00 0.00 0.00 78 1017.8
20260504032557 51 259 0.0 0.0 0.00 0.00 0.00 76 1017.8
20260504032314 51 259 0.0 0.0 0.00 0.00 0.00 76 1017.8
20260504032051 51 259 0.0 0.0 0.00 0.00 0.00 76 1017.8
20260504031545 51 259 0.0 0.0 0.00 0.00 0.00 76 1017.8
20260504031039 51 259 0.0 0.0 0.00 0.00 0.00 75 1017.8
20260504030533 51 259 0.0 0.0 0.00 0.00 0.00 75 1017.8
20260504030027 51 259 0.0 0.0 0.00 0.00 0.00 74 1017.8
20260504025520 52 259 0.0 0.0 0.00 0.00 0.00 74 1017.8
20260504025015 52 259 0.0 0.0 0.00 0.00 0.00 73 1017.6
20260504024509 52 259 0.0 0.0 0.00 0.00 0.00 73 1017.5
20260504024234 52 259 0.0 0.0 0.00 0.00 0.00 72 1017.5
20260504024003 52 259 0.0 0.0 0.00 0.00 0.00 72 1017.5
20260504023458 53 259 0.0 0.0 0.00 0.00 0.00 71 1017.5
20260504022951 53 259 0.0 0.0 0.00 0.00 0.00 71 1017.4
20260504022445 53 259 0.0 0.0 0.00 0.00 0.00 70 1017.5
20260504021939 53 259 0.0 0.0 0.00 0.00 0.00 70 1017.4
20260504021434 53 259 0.0 0.0 0.00 0.00 0.00 70 1017.3
20260504021153 54 259 0.0 0.0 0.00 0.00 0.00 68 1017.1
20260504020927 54 259 0.0 0.0 0.00 0.00 0.00 68 1017.1
20260504020420 54 259 0.0 0.0 0.00 0.00 0.00 67 1017.1
20260504020136 54 259 0.0 0.0 0.00 0.00 0.00 67 1017.1
20260504020019 54 259 0.0 0.0 0.00 0.00 0.00 67 1017.1
20260504015409 55 259 0.0 0.0 0.00 0.00 0.00 66 1017.0
20260504015126 55 259 0.0 0.0 0.00 0.00 0.00 66 1017.0
20260504014902 55 259 0.0 0.0 0.00 0.00 0.00 66 1017.0
20260504014357 55 259 0.0 0.0 0.00 0.00 0.00 65 1016.9
20260504014109 56 259 0.0 0.0 0.00 0.00 0.00 66 1016.9
20260504013956 56 259 0.0 0.0 0.00 0.00 0.00 66 1016.9
20260504013345 56 259 0.0 0.0 0.00 0.00 0.00 64 1016.8
20260504012839 56 259 0.0 0.0 0.00 0.00 0.00 65 1016.8
20260504012333 56 259 0.0 0.0 0.00 0.00 0.00 64 1016.8
20260504012059 57 259 0.0 0.0 0.00 0.00 0.00 64 1016.8